Location: Grandview
(34.8900°N, 117.1058°W)
Time: 14:11:37
(UTC-07:00)

Tiangong 2 - Pass Details

Date: 12 October 2017
Orbit: 388 x 391 km, 42.8° (Epoch: 22 October)

Event Time Altitude Azimuth Distance (km) Brightness Sun altitude
Exits shadow 05:20:51 25° 355° (N) 834 2.7 -19.5°
Drops below altitude 10° 05:23:20 10° 45° (NE) 1,420 4.6 -19.0°
Sets 05:25:38 0° 59° (ENE) 2,277 6.1 -18.5°
